Theta_e
304 304 304 304 305 305 304 301 298 313 316 299 300 295 297 300 300 303 300 299 298 296 297 297 299 298 302 306 305 300 303 299 293 297 304 305 301 298 298 291 290 293 291 291
304 303 303 303 304 304 302 297 301 313 311 292 295 298 299 301 299 299 299 298 300 300 297 293 299 301 306 307 304 301 302 295 289 292 297 300 297 299 299 298 295 292 287 290
304 303 303 303 304 304 300 301 291 304 305 301 297 296 296 296 302 300 301 300 300 298 296 299 297 299 305 307 303 304 305 299 293 288 292 297 294 295 296 295 290 291 292 295
303 303 303 303 303 303 300 303 295 301 293 295 296 298 297 296 295 301 302 299 299 297 294 295 294 300 303 305 304 305 302 294 298 298 298 297 296 295 295 293 295 291 295 296
303 302 301 302 303 302 297 296 297 303 298 297 296 296 295 295 297 298 296 297 299 299 295 296 293 297 298 300 303 301 302 292 295 294 297 297 294 296 295 296 297 297 297 297
302 300 301 302 302 301 297 306 306 303 298 296 294 294 296 296 299 300 301 299 299 299 300 301 301 302 304 304 301 298 296 294 290 289 296 295 290 294 296 297 299 298 294 299
302 301 300 301 301 301 299 307 306 300 294 296 295 296 298 297 299 297 301 302 299 303 307 306 304 303 303 302 300 302 296 293 290 286 290 282 293 301 301 300 301 302 303 304
300 300 299 300 301 302 303 309 306 301 293 297 297 297 298 300 301 300 300 303 306 307 303 293 289 290 292 297 299 299 299 296 287 283 284 291 295 299 298 297 296 303 302 304
299 299 299 301 305 306 311 310 310 305 297 295 301 298 299 296 296 296 301 306 307 306 298 290 287 286 289 288 292 300 299 299 294 286 283 284 294 301 304 304 291 304 304 304
298 299 300 306 307 309 312 305 305 302 290 293 297 298 297 301 299 297 297 302 302 304 294 289 288 287 293 288 289 289 291 292 290 290 288 291 299 303 305 291 292 305 305 303
297 300 300 306 310 311 305 298 302 299 288 291 295 296 298 300 301 296 297 299 296 294 292 291 288 287 291 290 294 292 290 288 290 291 288 286 304 302 295 299 304 303 303 302
298 299 299 302 304 307 305 295 300 299 292 289 296 297 298 297 297 297 292 294 294 292 295 294 292 286 288 291 288 299 291 296 292 294 293 302 305 302 304 304 302 302 302 302
299 299 299 301 303 303 302 297 298 294 288 289 291 292 297 301 300 300 290 290 291 288 291 288 287 287 287 289 291 294 299 303 297 296 301 302 301 301 302 302 301 302 304 303
300 300 300 301 303 302 302 297 298 296 291 285 285 298 296 301 300 298 296 292 291 290 290 285 285 285 286 285 287 287 293 295 295 295 298 299 300 299 299 301 302 302 304 303
301 301 301 302 302 302 300 299 299 301 292 285 285 295 298 301 299 296 296 293 290 287 285 285 285 285 285 285 287 285 294 292 289 287 297 296 294 297 300 298 298 300 301 301
302 302 302 302 302 301 296 288 297 301 301 288 284 292 293 297 299 295 294 294 293 291 285 285 287 293 289 284 283 291 295 296 295 292 294 294 294 295 301 299 299 300 300 301
301 302 302 302 302 298 292 289 296 300 301 288 283 283 290 295 296 295 294 296 293 290 288 286 287 288 290 285 279 289 292 292 293 293 292 290 292 291 296 298 299 299 298 298
301 302 301 300 301 298 294 298 301 301 294 293 284 282 285 293 288 288 293 289 290 288 287 287 285 287 283 282 287 290 291 292 293 293 293 292 294 294 294 296 295 293 293 295
301 299 299 296 293 288 293 301 300 299 293 285 284 282 279 291 288 287 287 289 282 289 283 283 286 282 281 285 288 289 291 291 292 294 295 294 293 293 294 294 294 293 292 291
299 296 289 285 290 300 299 292 288 287 286 287 285 287 282 288 286 284 283 284 283 279 282 286 281 281 289 290 291 291 291 292 292 289 289 290 290 292 290 290 291 290 289 288
294 287 285 294 299 292 287 284 284 284 283 284 286 286 284 289 282 282 285 281 282 278 281 280 279 280 287 291 291 292 293 293 293 292 290 291 291 289 288 287 287 287 286 286
294 292 295 294 290 285 281 280 282 281 281 284 285 286 287 286 289 283 282 280 281 278 285 277 276 281 288 289 290 290 290 290 289 289 288 288 288 289 287 286 285 285 286 285
296 292 286 283 284 278 277 273 279 279 283 285 284 284 284 286 288 282 281 277 275 284 273 275 280 287 289 290 289 288 288 288 288 287 287 286 285 286 285 284 285 284 284 284
287 283 277 277 274 279 281 281 282 285 286 287 284 281 282 282 281 281 277 281 281 273 268 276 279 285 287 288 287 285 285 285 285 284 284 283 283 282 283 283 283 283 281 277
283 283 274 279 283 285 285 286 288 288 290 286 283 283 282 280 277 280 279 275 273 276 275 278 280 286 287 286 286 286 284 284 284 284 283 283 283 283 282 282 283 282 281 279
286 285 281 281 279 282 285 282 283 289 283 286 283 280 276 278 279 278 275 277 275 276 279 281 286 287 287 285 286 286 286 286 285 285 284 282 279 279 280 280 279 273 273 270
286 281 284 282 283 279 285 285 284 291 285 280 281 277 278 279 277 278 279 274 278 283 281 284 287 285 283 284 285 285 285 285 285 284 284 283 282 281 280 279 279 279 278 271
Wind_Speed
26 23 23 24 23 19 12 14 17 14 21 16 17 22 38 14 22 19 15 13 9 9 9 10 15 14 8 10 13 12 10 5 5 10 7 6 9 9 9 6 7 6 8 10
28 26 24 25 24 19 5 15 8 18 24 20 20 32 27 23 17 29 16 14 10 5 5 11 9 11 11 7 12 8 7 3 1 8 7 5 6 5 6 5 4 10 9 8
28 26 24 26 26 22 10 13 11 10 17 17 28 28 21 29 22 23 12 13 11 9 6 4 1 6 5 2 5 4 6 4 8 11 7 2 5 5 6 5 4 11 12 20
28 27 26 28 27 23 8 14 6 6 25 21 24 32 28 25 20 25 14 16 23 11 6 3 6 3 1 7 1 4 5 5 2 7 4 4 10 15 14 12 16 17 16 24
28 27 27 30 28 24 11 9 6 8 24 39 31 19 17 34 28 23 34 19 18 17 11 8 5 3 3 3 3 3 0 2 2 16 4 7 21 21 15 19 21 22 26 32
30 24 30 28 29 20 7 8 3 8 20 29 21 25 32 33 25 23 23 29 12 14 18 8 6 4 4 2 6 8 6 5 3 14 4 8 23 8 18 21 18 19 26 28
30 27 28 29 27 24 13 13 11 9 13 23 28 34 29 24 26 25 25 13 22 7 6 8 8 6 4 5 4 6 4 5 4 4 6 12 3 5 7 6 7 10 17 18
22 22 29 28 31 38 17 12 11 9 6 22 25 20 24 15 17 15 17 21 5 11 6 6 6 5 2 18 8 7 7 5 1 3 7 17 29 17 15 15 27 19 19 16
15 24 27 38 38 40 18 13 3 6 10 13 18 21 16 19 16 5 17 7 8 7 4 5 8 9 6 7 5 15 7 7 7 4 4 19 23 8 6 5 12 19 12 11
11 18 31 16 41 43 15 6 4 6 8 1 1 15 22 11 14 11 3 8 4 4 5 2 7 12 11 15 13 6 10 8 17 15 11 16 4 8 8 10 4 13 15 13
7 13 25 10 28 40 8 5 6 6 5 3 8 6 3 5 14 15 6 3 4 3 6 9 6 5 7 6 17 17 12 9 13 11 12 27 3 5 18 5 12 13 13 12
3 8 18 23 18 20 12 6 5 7 10 4 3 7 7 6 3 7 4 3 4 3 5 3 4 1 1 9 17 12 17 14 11 13 9 2 6 12 5 8 4 5 5 5
4 9 12 19 23 19 9 7 5 7 6 5 5 5 6 10 7 4 9 2 5 3 2 4 2 3 3 7 11 5 13 6 9 3 8 6 8 7 5 2 3 3 2 2
10 12 11 18 21 24 16 8 3 8 6 6 3 4 6 4 11 17 14 11 9 5 2 4 3 2 1 0 2 3 2 2 1 2 3 7 10 2 4 1 4 2 5 3
15 15 12 21 22 22 14 8 8 7 7 5 4 6 6 6 11 15 14 12 7 3 4 3 3 2 3 1 1 3 2 2 2 3 5 6 8 8 6 5 5 5 4 5
14 14 15 21 18 12 4 6 4 5 4 6 4 3 3 5 7 12 12 9 4 3 3 2 3 5 4 3 3 6 8 6 1 3 4 4 5 7 6 7 7 6 6 8
15 16 18 17 12 7 5 3 5 2 3 6 5 3 3 1 7 3 4 5 3 3 2 2 3 3 6 2 4 4 7 6 7 8 6 7 3 5 7 8 6 5 3 3
22 20 18 16 14 7 7 6 9 4 4 4 5 3 2 2 3 3 2 3 2 2 3 1 2 3 2 5 9 4 6 6 5 6 7 8 6 3 6 6 4 6 5 3
22 18 15 8 6 4 3 9 10 4 4 4 3 7 4 3 2 2 2 3 3 2 2 2 3 2 6 8 5 6 4 3 3 5 6 8 6 5 6 6 5 6 6 8
14 8 5 3 2 10 8 8 5 6 4 3 3 5 4 5 4 2 3 1 4 3 5 3 2 4 10 6 5 5 7 5 5 4 5 6 7 10 12 11 10 10 10 10
4 3 3 4 1 4 3 3 2 0 2 0 1 5 9 3 4 3 3 4 2 2 4 5 3 4 2 8 9 8 8 9 10 9 9 8 8 8 9 9 8 8 8 8
6 7 3 1 1 2 4 2 2 2 3 2 5 6 4 2 4 4 2 3 2 3 5 4 1 3 6 8 10 10 9 10 11 10 9 8 8 7 7 7 7 7 7 7
2 4 3 2 0 2 3 4 2 3 3 3 3 4 3 3 3 3 3 3 4 3 3 4 5 6 6 9 10 11 9 9 10 9 7 8 10 10 8 9 8 9 9 7
2 3 3 2 1 2 1 1 4 2 6 9 5 3 4 2 4 3 4 3 4 2 2 5 3 5 7 7 7 9 8 8 8 9 9 8 10 10 9 8 8 9 9 6
2 4 2 3 2 3 3 2 5 4 6 5 4 4 4 1 3 1 3 2 3 5 5 4 3 7 8 8 7 8 7 7 7 8 7 7 8 8 8 6 7 9 9 8
1 2 4 1 5 2 3 4 3 3 2 3 3 3 3 3 4 3 5 5 5 4 3 3 5 7 8 8 6 6 7 8 7 6 6 6 6 6 7 6 6 5 6 6
2 1 2 4 4 4 3 2 1 2 3 2 2 4 6 3 2 3 4 5 3 5 3 3 6 7 8 8 6 5 6 9 8 6 6 6 6 7 6 6 4 5 5 4
Wind_Direction
241 240 243 246 249 253 278 224 223 171 166 183 187 202 211 214 220 235 229 244 263 236 223 189 194 206 217 187 193 198 205 177 194 244 248 213 200 206 183 191 256 240 244 247
235 235 241 243 248 242 281 216 214 184 177 189 177 216 212 214 223 207 228 231 212 181 212 225 198 214 214 231 181 183 179 222 58 337 330 304 216 220 227 233 176 234 247 270
233 232 241 243 241 245 236 212 186 187 185 205 189 187 200 210 213 232 221 240 257 234 207 178 264 181 27 131 112 169 116 193 167 202 203 111 277 288 281 261 241 266 256 275
232 232 238 243 238 250 248 219 209 184 170 194 206 187 193 189 202 219 207 239 230 202 182 207 177 221 73 39 5 73 126 205 218 259 256 332 292 283 287 290 278 267 272 272
230 233 243 240 237 250 250 224 187 158 171 193 202 193 198 197 194 185 217 231 207 218 202 169 110 129 121 186 53 109 121 245 160 269 355 311 283 271 277 255 266 279 286 278
235 235 243 242 233 227 253 194 196 169 173 194 194 202 200 203 191 219 205 214 227 226 218 180 202 128 113 159 158 179 157 138 118 262 50 359 278 216 253 268 256 253 264 277
227 238 246 246 246 228 245 176 155 171 160 188 202 205 201 203 189 207 209 220 213 189 97 91 58 45 15 285 260 173 152 139 162 247 84 245 243 164 242 262 279 260 268 269
243 252 255 256 254 251 230 174 174 166 146 189 209 206 202 199 209 211 212 204 204 153 87 67 52 350 300 241 224 229 165 140 138 179 200 274 268 276 289 287 276 268 265 290
255 271 280 268 239 198 204 171 121 122 150 202 194 195 195 191 216 177 222 238 170 118 124 115 159 204 188 208 235 207 197 179 191 149 215 250 285 179 227 269 276 285 241 275
279 299 301 232 174 169 175 163 79 108 125 2 64 177 194 183 194 217 138 180 119 117 128 155 168 217 187 217 211 145 205 199 217 232 236 263 125 126 350 249 242 42 47 19
287 327 337 58 159 163 135 87 36 105 102 43 25 33 90 130 188 192 190 121 297 93 168 181 187 201 210 227 232 214 181 173 214 228 232 251 137 244 220 303 43 45 30 28
270 30 14 28 69 148 120 88 68 69 74 100 44 72 26 50 4 137 26 110 67 96 166 155 123 176 225 217 238 209 228 209 209 197 220 252 52 100 103 52 67 40 43 45
157 89 47 37 64 79 94 105 125 71 88 50 35 26 6 33 13 312 114 39 110 81 38 114 96 206 26 210 230 237 229 185 216 93 247 267 78 89 53 10 38 334 78 210
149 130 101 72 62 61 64 79 23 85 106 101 24 325 43 73 53 59 69 98 78 92 83 98 109 134 166 186 322 253 292 128 162 315 350 329 157 305 291 336 257 317 245 265
149 139 129 103 93 84 70 58 36 42 98 109 120 108 63 86 89 87 92 98 106 80 92 97 151 128 151 212 261 257 215 73 69 256 205 205 259 298 288 259 260 254 253 264
128 130 121 101 99 97 58 75 355 357 55 99 98 36 97 121 130 120 122 124 108 98 119 138 162 193 157 168 222 251 206 196 67 251 300 244 251 293 274 280 277 276 265 251
110 119 112 103 73 52 53 97 152 164 28 84 90 64 349 60 127 101 137 115 118 114 88 132 157 199 167 204 208 253 3 335 310 306 308 311 276 258 261 256 270 287 299 330
112 101 84 71 57 52 46 40 66 68 93 91 104 78 85 323 101 109 129 92 89 50 133 103 165 109 144 240 229 277 260 255 265 276 260 242 258 319 347 312 337 337 345 359
101 86 64 44 33 43 51 54 53 29 88 107 114 144 140 163 105 122 54 124 109 131 135 211 141 207 218 221 200 236 287 76 16 359 15 12 15 10 345 338 34 40 32 81
72 43 45 48 6 138 24 15 21 18 351 24 85 112 142 142 175 145 112 109 146 159 211 129 156 258 247 226 201 97 75 49 27 33 352 358 23 52 51 48 46 51 54 57
57 51 24 78 296 50 47 87 100 152 21 6 108 125 135 176 131 140 164 171 163 136 187 137 204 255 220 108 103 82 62 75 63 74 65 50 52 58 65 63 64 73 77 80
115 114 120 123 129 67 84 143 153 190 145 175 119 140 128 141 116 96 316 140 93 172 143 99 233 252 134 114 99 86 73 65 64 59 64 60 67 74 88 86 87 81 78 79
98 64 51 76 221 61 148 183 202 122 127 137 104 89 127 27 68 66 93 95 192 92 80 199 220 165 116 108 108 91 76 83 88 85 77 81 87 77 80 84 70 83 76 63
121 122 73 124 17 282 260 229 104 130 105 111 116 77 113 130 66 154 105 203 94 129 140 216 213 140 111 99 97 96 89 89 89 88 85 80 75 72 62 66 78 81 70 48
77 76 74 83 97 4 323 359 72 43 109 104 64 44 91 91 91 201 117 53 214 195 215 168 189 129 121 109 108 112 115 112 102 102 106 103 98 87 78 70 84 87 86 73
52 89 64 91 82 14 18 6 30 27 90 71 69 129 109 192 153 146 192 176 199 232 125 164 140 118 114 116 123 127 133 123 124 120 103 97 104 109 105 88 83 81 102 99
16 10 68 115 82 138 161 146 222 340 86 144 145 126 193 131 138 188 176 203 181 145 113 105 128 126 123 116 111 111 110 126 127 130 139 127 133 133 128 123 141 130 134 131